Regional Weather Roundup
Issued by NWS

Home | Current Version | Previous Version | Text Only | Print | Product List | Glossary On
Versions: 1 2 3 4 5 6 7 8 9 10 11 12 13 14 15 16 17 18 19 20 21 22 23 24 25 26 27 28 29 30 31 32 33 34 35 36 37 38 39 40 41 42 43 44 45 46 47 48 49 50
000
ASUS43 KMKX 151621
RWRWI

WISCONSIN REGIONAL WEATHER ROUNDUP
NATIONAL WEATHER SERVICE MILWAUKEE/SULLIVAN WI
1000 AM CST FRI DEC 15 2017

NOTE: "FAIR" INDICATES FEW OR NO CLOUDS BELOW 12,000 FEET WITH NO
SIGNIFICANT WEATHER AND/OR OBSTRUCTIONS TO VISIBILITY.

WIZ001-002-006>008-014>016-023>028-151700-
NORTHWEST WISCONSIN

CITY           SKY/WX    TMP DP  RH WIND       PRES   REMARKS
SUPERIOR ARPT  CLOUDY    14   5  68 NW8       29.89R WCI   2
ASHLAND        LGT SNOW  15   8  73 W8        29.86S WCI   4
HAYWARD        FLURRIES  14   6  70 VRB3      29.84S
SIREN          FLURRIES  16   8  72 NW6       29.88S WCI   7
CUMBERLAND     FLURRIES  14   7  73 W5        29.86S WCI   6
RICE LAKE      FLURRIES  15   8  74 CALM      29.89S
CHETEK         CLOUDY    15   8  73 CALM      29.88S
LADYSMITH      FLURRIES  15   9  76 NW10      29.86S WCI   2
EAU CLAIRE     CLOUDY    17  10  74 NW9       29.88F WCI   6
MENOMONIE      CLOUDY    19  12  73 NW6       29.89S WCI  11
NEW RICHMOND   CLOUDY    17  10  74 N5        29.89S WCI  10
OSCEOLA        CLOUDY    17  10  76 N3        29.92F
$$

WIZ003>005-009-010-017-018-151700-
NORTH CENTRAL WISCONSIN

CITY           SKY/WX    TMP DP  RH WIND       PRES   REMARKS
MANITOWISH WTR FLURRIES  12   8  85 W9G17     29.77S WCI   0
ARBOR VITAE    LGT SNOW  14  10  83 W7        29.77R WCI   4
WOODRUFF       LGT SNOW  14  10  83 W7        29.77R WCI   4
RHINELANDER    CLOUDY    13   9  84 W10       29.78R WCI   0
EAGLE RIVER    LGT SNOW  13   7  77 W7        29.75R WCI   3
LAND O LAKES   LGT SNOW  15  10  80 W9        29.75S WCI   3
PHILLIPS       FLURRIES  12   7  79 NW6       29.80S WCI   3
TOMAHAWK       FLURRIES  13   8  80 W7        29.81R WCI   3
MEDFORD        FLURRIES  13   7  78 NW7       29.81S WCI   3
MERRILL        LGT SNOW  15   9  76 CALM      29.83R
$$

WIZ029-030-035-036-043>047-151700-
CENTRAL WISCONSIN

CITY           SKY/WX    TMP DP  RH WIND       PRES   REMARKS
WAUSAU         LGT SNOW  15   9  76 NW10      29.82R WCI   2
MOSINEE        CLOUDY    16  10  79 W9        29.84R WCI   4
MARSHFIELD     MOSUNNY   16   8  71 NW12      29.84S WCI   3
STEVENS POINT  CLOUDY    16   9  73 W12G17    29.86R WCI   3
WAUPACA        CLOUDY    23  12  62 W10       29.86R WCI  12
WAUTOMA        CLOUDY    22  11  62 W14       29.88R WCI   9
WISC RAPIDS    FLURRIES  19  10  68 NW9       29.88R WCI   8
CAMP DOUGLAS   CLOUDY    23  14  68 W6        29.88S WCI  16
$$

WIZ011>013-019>022-031-037>040-048>050-151700-
NORTHEAST WISCONSIN

CITY           SKY/WX    TMP DP  RH WIND       PRES   REMARKS
ANTIGO         FLURRIES  12   6  76 NW9       29.80R WCI   0
SHAWANO        MOSUNNY   19   9  64 NW13G22   29.84R WCI   7
OCONTO         CLOUDY    17   8  67 W10       29.83R WCI   5
STURGEON BAY   CLOUDY    19  12  74 W16       29.81R WCI   4
GREEN BAY      CLOUDY    20   9  62 NW17G25   29.85R WCI   5
MANITOWOC      FLURRIES  21  13  71 NW13      29.85R WCI   9
APPLETON       PTSUNNY   21  12  68 NW12      29.82R WCI   9
CLINTONVILLE   SUNNY     18   9  68 NW13      29.85R WCI   4
OSHKOSH        CLOUDY    22  14  71 W13       29.85R WCI  10
$$

WIZ032>034-041-042-053>061-151700-
SOUTHWEST WISCONSIN

CITY           SKY/WX    TMP DP  RH WIND       PRES   REMARKS
LA CROSSE      CLOUDY    28  18  66 W5        29.91S WCI  23
SPARTA         CLOUDY    24  18  77 W9        29.90S WCI  15
VIROQUA        CLOUDY    24  20  84 CALM      29.87S
BOSCOBEL       CLOUDY    29  19  66 SW8       29.93S WCI  21
PRAIRIE DU CHI FLURRIES  29  21  73 SW3       29.93F
PLATTEVILLE    CLOUDY    28  21  77 W10       29.93S WCI  18
$$

WIZ056-057-062-063-064-067-068-151700-
SOUTH CENTRAL WISCONSIN

CITY           SKY/WX    TMP DP  RH WIND       PRES   REMARKS
REEDSBURG      CLOUDY    25  15  65 W13       29.89S WCI  13
BARABOO/DELLS  CLOUDY    24  14  65 W8        29.88S WCI  15
LONE ROCK      CLOUDY    26  17  68 MISG      29.92S
MINERAL POINT  CLOUDY    28  21  74 W13G18    29.90S WCI  18
MADISON        PTSUNNY   26  13  57 NW7G17    29.90R WCI  18
MIDDLETON      PTSUNNY   28  15  59 W12G22    29.90R WCI  18
WATERTOWN      CLOUDY    24  12  61 W18G24    29.89R WCI  10
MONROE         CLOUDY    27  18  69 W17G23    29.91R WCI  14
JANESVILLE     PTSUNNY   28  12  50 NW13G18   29.91R WCI  18
$$

WIZ051-052-058>065-066-070>072-151700-
SOUTHEAST WISCONSIN

CITY           SKY/WX    TMP DP  RH WIND       PRES   REMARKS
MILWAUKEE      FLURRIES  26  15  63 W14G23    29.88S WCI  14
WAUKESHA       MOSUNNY   21  10  63 W20G25    29.88S WCI   6
MILWAUKEE/TIMM CLOUDY    25  10  54 W14G20    29.88R WCI  13
RACINE         CLOUDY    25  14  63 W15G28    29.90S WCI  13
BURLINGTON     SUNNY     25  19  76 W10       29.90R WCI  15
KENOSHA        FLURRIES  26  16  65 W10       29.90R WCI  16
FOND DU LAC    CLOUDY    23  12  62 W15       29.86R WCI  10
SHEBOYGAN      CLOUDY    22  16  78 W13       29.84R WCI  10
WEST BEND      CLOUDY    23  18  80 W10G21    29.85S WCI  12
JUNEAU         MOSUNNY   22  13  67 W7        29.89R WCI  13
$$

LSZ147-162-151700-
LAKE SUPERIOR

STATION/POSITION TIME  TEMP    WIND        PRES    WAVE
                       AIR SEA DIR/SP/G            HT/PER
                 (UTC) (F)     (DEG/KT/KT) (MB)    (FT/S)
DEVILS ISLAND    1600   15     310/ 14/ 19 1012.4R
SAXON HARBOR     1530   16                 1010.5S
$$

LMZ867-665-643>646-151700-
LAKE MICHIGAN

STATION/POSITION TIME  TEMP    WIND        PRES    WAVE
                       AIR SEA DIR/SP/G            HT/PER
                 (UTC) (F)     (DEG/KT/KT) (MB)    (FT/S)
NORTHPORT PIER   1604   20     290/  7/ 16 1008.1
KEWAUNEE LAKESHO 1554   19     280/ 11/ 16 1009.5R
SHEBOYGAN LAKESH 1600   23     300/ 14/ 17 1011.8R
PORT WASHINGTON  1540   24     280/  7/ 14 1012.2S
MILWAUKEE LAKESH 1600   25     280/ 16/ 20   N/A
KENOSHA   LAKESH 1600   25     290/ 11/ 19 1012.5
$$

TC  - TEMPERATURE IN CELSIUS
VSB - VISIBILITY IN STATUTE MILES
WCI - WIND CHILL INDEX
HX  - HEAT INDEX





USA.gov is the U.S. government's official web portal to all federal, state and local government web resources and services.